Date String (YYYY-MM-DD hh:mm:ss) UTC,Instrument flags,absolute air pressure of the measurement (hPa),sample flow rate (lpm),inlet stack bypass flow (lpm),air temperature of the measurement (°C),ambient temperature measured by the external sensor (°C),aerosol sample conditioner tube jacket temperature (°C),OPC LED temperature (°C),internal box temperature (°C),relative humidity of the measurement (%),span deviation,mass concentration of particles derived from Lorenz-Mie calculation of OPC scattering (μg/m³),mass concentration of particles derived from Lorenz-Mie calculation of OPC scattering (μg/m³),mass concentration of particles derived from Lorenz-Mie calculation of OPC scattering (μg/m³)
DateTimeUTC,F1_M11,P_M11,Q1_M11,Q2_M11,T1_M11,T2_M11,T3_M11,T4_M11,T5_M11,U1_M11,ZSPAN_M11,X0_M11,X2_M11,X1_M11
2023-07-20 23:00:00,SystemResetWarning,0835.9,5.04,000.00,034.8,026.0,000.0,041.8,032.6,35.1,-000.5,0015.64,0008.73,0007.62
2023-07-20 23:01:00,SystemResetWarning,0835.8,4.97,000.00,034.8,025.4,000.0,041.7,032.5,34.5,-000.8,0015.79,0008.79,0007.65
2023-07-20 23:02:00,SystemResetWarning,0835.8,5.01,000.00,034.6,025.5,000.0,041.7,032.2,34.7,-000.8,0015.89,0008.83,0007.68
2023-07-20 23:03:00,SystemResetWarning,0835.8,5.01,000.00,034.4,025.9,000.0,041.8,032.1,34.6,-000.7,0015.70,0008.85,0007.70
2023-07-20 23:04:00,SystemResetWarning,0835.8,4.97,000.00,034.2,026.4,000.0,041.8,032.2,35.0,-000.9,0014.64,0008.75,0007.67
2023-07-20 23:05:00,SystemResetWarning,0835.8,5.02,000.00,034.2,026.8,000.0,041.8,032.3,35.9,-001.0,0014.81,0008.70,0007.65
2023-07-20 23:06:00,SystemResetWarning,0835.9,4.99,000.00,034.3,027.2,000.0,041.8,032.5,35.9,-001.1,0015.01,0008.70,0007.63
2023-07-20 23:07:00,SystemResetWarning,0836.0,5.01,000.00,034.5,027.5,000.0,041.8,032.7,34.9,-001.0,0015.33,0008.63,0007.59
2023-07-20 23:08:00,SystemResetWarning,0836.1,4.97,000.00,034.6,027.8,000.0,041.8,032.8,34.3,-001.1,0015.45,0008.60,0007.57
2023-07-20 23:09:00,SystemResetWarning,0836.1,5.01,000.00,034.7,028.1,000.0,041.9,032.8,34.0,-001.1,0015.50,0008.57,0007.55
2023-07-20 23:10:00,SystemResetWarning,0836.0,5.01,000.00,034.7,028.3,000.0,041.9,032.8,34.2,-001.1,0015.44,0008.57,0007.55
2023-07-20 23:11:00,SystemResetWarning,0836.0,4.99,000.00,034.7,028.4,000.0,042.0,032.9,33.7,-001.0,0015.56,0008.53,0007.54
2023-07-20 23:12:00,SystemResetWarning,0835.9,4.99,000.00,034.7,027.2,000.0,041.9,032.8,33.7,-000.9,0015.51,0008.55,0007.53
2023-07-20 23:13:00,SystemResetWarning,0835.9,5.00,000.00,034.7,025.8,000.0,041.7,032.6,33.7,-000.8,0015.65,0008.62,0007.50
2023-07-20 23:14:00,SystemResetWarning,0836.0,5.02,000.00,034.6,025.4,000.0,041.7,032.4,33.9,-001.1,0015.59,0008.60,0007.48
2023-07-20 23:15:00,SystemResetWarning,0835.9,4.99,000.00,034.3,025.6,000.0,041.7,032.1,34.8,-001.1,0015.55,0008.56,0007.46
2023-07-20 23:16:00,SystemResetWarning,0835.8,5.00,000.00,034.1,026.1,000.0,041.7,032.1,35.2,-000.8,0015.17,0008.52,0007.46
2023-07-20 23:17:00,SystemResetWarning,0835.8,5.01,000.00,034.2,026.5,000.0,041.8,032.3,35.7,-000.9,0015.17,0008.51,0007.48
2023-07-20 23:18:00,SystemResetWarning,0835.8,5.01,000.00,034.4,026.9,000.0,041.8,032.5,35.6,-000.8,0015.31,0008.53,0007.50
2023-07-20 23:19:00,SystemResetWarning,0835.8,4.99,000.00,034.5,027.3,000.0,041.8,032.7,34.4,-000.9,0015.69,0008.51,0007.49
2023-07-20 23:20:00,SystemResetWarning,0835.9,4.99,000.00,034.6,027.6,000.0,041.8,032.7,34.1,-000.8,0015.38,0008.45,0007.44
2023-07-20 23:21:00,SystemResetWarning,0835.9,5.01,000.00,034.7,027.9,000.0,041.8,032.8,33.8,-000.9,0014.88,0008.35,0007.39
2023-07-20 23:22:00,SystemResetWarning,0836.0,5.00,000.00,034.7,028.2,000.0,041.9,032.8,34.2,-000.8,0014.24,0008.29,0007.34
2023-07-20 23:23:00,SystemResetWarning,0836.0,4.99,000.00,034.6,028.4,000.0,041.9,032.8,34.3,-000.7,0014.34,0008.19,0007.28
2023-07-20 23:24:00,SystemResetWarning,0836.1,4.99,000.00,034.6,028.3,000.0,042.0,032.8,34.3,-000.5,0014.11,0007.97,0007.21
2023-07-20 23:25:00,SystemResetWarning,0836.0,5.00,000.00,034.7,026.9,000.0,041.8,032.7,34.3,-000.3,0014.11,0007.90,0007.16
2023-07-20 23:26:00,SystemResetWarning,0836.0,5.00,000.00,034.6,025.6,000.0,041.7,032.4,34.4,-000.2,0014.12,0007.91,0007.15
2023-07-20 23:27:00,SystemResetWarning,0836.1,4.99,000.00,034.4,025.4,000.0,041.6,032.2,34.9,0000.1,0014.17,0007.95,0007.15
2023-07-20 23:28:00,SystemResetWarning,0835.9,5.02,000.00,034.2,025.7,000.0,041.7,032.1,35.6,0000.3,0013.79,0007.94,0007.14
2023-07-20 23:29:00,SystemResetWarning,0836.0,5.02,000.00,034.2,026.1,000.0,041.7,032.2,35.1,0000.5,0013.13,0007.90,0007.12
2023-07-20 23:30:00,SystemResetWarning,0836.1,4.97,000.00,034.3,026.6,000.0,041.7,032.4,34.8,0000.9,0012.48,0007.89,0007.10
2023-07-20 23:31:00,SystemResetWarning,0836.1,5.00,000.00,034.3,027.0,000.0,041.7,032.5,35.2,0001.1,0012.94,0007.89,0007.08
2023-07-20 23:32:00,SystemResetWarning,0836.0,5.02,000.00,034.4,027.4,000.0,041.7,032.6,35.6,0001.1,0012.84,0007.83,0007.04
2023-07-20 23:33:00,SystemResetWarning,0836.2,5.00,000.00,034.5,027.7,000.0,041.8,032.7,35.3,0001.0,0012.78,0007.78,0007.01
2023-07-20 23:34:00,SystemResetWarning,0836.2,4.99,000.00,034.8,028.0,000.0,041.8,032.9,34.4,0000.7,0012.53,0007.72,0006.98
2023-07-20 23:35:00,SystemResetWarning,0836.2,4.99,000.00,034.9,028.2,000.0,041.8,032.9,34.2,0000.5,0012.40,0007.74,0006.97
2023-07-20 23:36:00,SystemResetWarning,0836.2,5.02,000.00,034.9,028.4,000.0,041.9,032.9,34.2,0000.7,0012.32,0007.74,0006.96
2023-07-20 23:37:00,SystemResetWarning,0836.3,5.00,000.00,034.9,028.5,000.0,042.0,032.9,34.2,0000.7,0012.19,0007.72,0006.95
2023-07-20 23:38:00,SystemResetWarning,0836.3,4.98,000.00,035.0,027.5,000.0,041.9,032.9,33.8,0000.3,0012.22,0007.72,0006.94
2023-07-20 23:39:00,SystemResetWarning,0836.3,5.01,000.00,034.9,025.9,000.0,041.8,032.6,33.9,0000.1,0012.19,0007.69,0006.93
2023-07-20 23:40:00,SystemResetWarning,0836.4,5.01,000.00,034.8,025.4,000.0,041.7,032.4,34.1,-000.2,0012.29,0007.70,0006.95
2023-07-20 23:41:00,SystemResetWarning,0836.5,4.99,000.00,034.6,025.6,000.0,041.8,032.0,34.8,-000.4,0012.63,0007.74,0006.98
2023-07-20 23:42:00,SystemResetWarning,0836.5,5.00,000.00,034.3,026.0,000.0,041.8,032.1,35.6,-000.6,0012.30,0007.75,0007.00
2023-07-20 23:43:00,SystemResetWarning,0836.6,5.01,000.00,034.4,026.4,000.0,041.8,032.3,35.2,-000.4,0012.49,0007.83,0007.02
2023-07-20 23:44:00,SystemResetWarning,0836.7,5.00,000.00,034.5,026.9,000.0,041.9,032.5,34.8,-000.5,0012.59,0007.88,0007.03
2023-07-20 23:45:00,SystemResetWarning,0836.8,4.99,000.00,034.6,027.2,000.0,041.9,032.6,34.1,-000.6,0012.44,0007.81,0006.95
2023-07-20 23:46:00,SystemResetWarning,0836.7,4.99,000.00,034.6,027.6,000.0,041.9,032.6,33.8,-000.5,0012.18,0007.65,0006.83
2023-07-20 23:47:00,SystemResetWarning,0836.8,5.00,000.00,034.6,027.9,000.0,041.9,032.7,33.3,-000.8,0011.91,0007.47,0006.67
2023-07-20 23:48:00,SystemResetWarning,0836.9,5.00,000.00,034.5,028.1,000.0,041.9,032.7,33.4,-001.0,0011.59,0007.24,0006.50
2023-07-20 23:49:00,SystemResetWarning,0837.0,5.01,000.00,034.5,028.3,000.0,042.0,032.7,33.5,-000.9,0011.31,0007.07,0006.35
2023-07-20 23:50:00,SystemResetWarning,0837.0,4.99,000.00,034.4,028.5,000.0,042.0,032.8,33.2,-001.0,0011.07,0006.91,0006.21
2023-07-20 23:51:00,SystemResetWarning,0836.9,4.98,000.00,034.4,028.0,000.0,041.9,032.8,33.4,-000.8,0010.81,0006.76,0006.07
2023-07-20 23:52:00,SystemResetWarning,0836.9,5.00,000.00,034.4,026.3,000.0,041.8,032.6,33.3,-000.8,0010.32,0006.60,0005.93
2023-07-20 23:53:00,SystemResetWarning,0836.9,5.00,000.00,034.3,025.4,000.0,041.6,032.4,33.5,-000.4,0010.02,0006.49,0005.84
2023-07-20 23:54:00,SystemResetWarning,0837.0,5.00,000.00,034.1,025.4,000.0,041.6,032.1,33.8,-000.4,0009.84,0006.39,0005.77
2023-07-20 23:55:00,SystemResetWarning,0837.0,5.01,000.00,033.8,025.8,000.0,041.6,032.0,34.3,-000.4,0009.67,0006.29,0005.71
2023-07-20 23:56:00,SystemResetWarning,0837.0,5.01,000.00,033.6,026.2,000.0,041.6,032.0,34.5,-001.1,0009.74,0006.28,0005.67
2023-07-20 23:57:00,SystemResetWarning,0837.0,5.00,000.00,033.5,026.6,000.0,041.5,032.1,34.7,-001.0,0009.79,0006.29,0005.67
2023-07-20 23:58:00,SystemResetWarning,0836.9,5.00,000.00,033.3,027.0,000.0,041.5,032.1,34.9,-000.8,0009.92,0006.32,0005.67
2023-07-20 23:59:00,SystemResetWarning,0837.0,4.98,000.00,033.2,027.4,000.0,041.4,032.2,35.0,-000.7,0010.04,0006.32,0005.65
